| time (UTC) | temp F | wind direction | speed MPH | gust MPH | rain 1hr in | rain 24hr in | rain mn in | humidity % | barometer mb |
| 20260905164600 | 83 | 1 | 0.0 | 0.0 | 0.00 | 0.01 | 0.00 | 83 | 1015.0 |
| 20260905163057 | 82 | 1 | 0.0 | 0.0 | 0.00 | 0.01 | 0.00 | 83 | 1015.5 |
| 20260905161553 | 81 | 1 | 0.0 | 0.0 | 0.00 | 0.01 | 0.00 | 85 | 1015.7 |
| 20260905160055 | 80 | 1 | 0.0 | 0.0 | 0.00 | 0.01 | 0.00 | 87 | 1015.7 |
| 20260905154548 | 78 | 1 | 0.0 | 0.0 | 0.00 | 0.01 | 0.00 | 88 | 1015.8 |
| 20260905153059 | 77 | 1 | 0.0 | 0.0 | 0.00 | 0.01 | 0.00 | 89 | 1015.9 |
| 20260905151540 | 76 | 1 | 0.0 | 0.0 | 0.00 | 0.01 | 0.00 | 89 | 1016.0 |
| 20260905150036 | 74 | 1 | 0.0 | 0.0 | 0.00 | 0.01 | 0.00 | 91 | 1016.3 |
| 20260905144532 | 73 | 1 | 0.0 | 0.0 | 0.00 | 0.01 | 0.00 | 92 | 1016.4 |
| 20260905143029 | 72 | 1 | 0.0 | 0.0 | 0.00 | 0.01 | 0.00 | 93 | 1016.4 |
| 20260905141530 | 71 | 1 | 0.0 | 0.0 | 0.00 | 0.01 | 0.00 | 93 | 1016.5 |
| 20260905140024 | 70 | 1 | 0.0 | 0.0 | 0.00 | 0.01 | 0.00 | 93 | 1016.8 |
| 20260905134522 | 69 | 1 | 0.0 | 0.0 | 0.00 | 0.01 | 0.00 | 94 | 1016.9 |
| 20260905133021 | 69 | 1 | 0.0 | 0.0 | 0.00 | 0.01 | 0.00 | 94 | 1016.9 |
| 20260905131521 | 68 | 1 | 0.0 | 0.0 | 0.00 | 0.01 | 0.00 | 94 | 1017.0 |
| 20260905130020 | 68 | 1 | 0.0 | 0.0 | 0.00 | 0.01 | 0.00 | 94 | 1017.1 |
| 20260905124523 | 67 | 1 | 0.0 | 0.0 | 0.00 | 0.01 | 0.00 | 94 | 1017.0 |
| 20260905123020 | 67 | 1 | 0.0 | 0.0 | 0.00 | 0.01 | 0.00 | 94 | 1016.7 |
| 20260905121519 | 67 | 1 | 0.0 | 0.0 | 0.00 | 0.01 | 0.00 | 93 | 1016.8 |
| 20260905120021 | 67 | 1 | 0.0 | 0.0 | 0.00 | 0.01 | 0.00 | 94 | 1016.8 |
| 20260905114518 | 67 | 1 | 0.0 | 0.0 | 0.00 | 0.01 | 0.00 | 94 | 1016.6 |
| 20260905113017 | 67 | 1 | 0.0 | 0.0 | 0.00 | 0.01 | 0.00 | 94 | 1016.2 |
| 20260905111518 | 67 | 1 | 0.0 | 0.0 | 0.00 | 0.01 | 0.00 | 93 | 1016.0 |
| 20260905110015 | 67 | 1 | 0.0 | 0.0 | 0.00 | 0.01 | 0.00 | 93 | 1015.8 |
| 20260905104514 | 67 | 1 | 0.0 | 0.0 | 0.00 | 0.01 | 0.00 | 93 | 1015.6 |
| 20260905103013 | 67 | 1 | 0.0 | 0.0 | 0.00 | 0.01 | 0.00 | 93 | 1015.6 |
| 20260905101513 | 67 | 1 | 0.0 | 0.0 | 0.00 | 0.01 | 0.00 | 93 | 1015.5 |
| 20260905100011 | 67 | 1 | 0.0 | 0.0 | 0.00 | 0.01 | 0.00 | 93 | 1015.4 |
| 20260905094510 | 68 | 1 | 0.0 | 0.0 | 0.00 | 0.01 | 0.00 | 93 | 1015.5 |
| 20260905093009 | 68 | 1 | 0.0 | 0.0 | 0.00 | 0.01 | 0.00 | 93 | 1015.5 |
| 20260905091508 | 68 | 1 | 0.0 | 0.0 | 0.00 | 0.01 | 0.00 | 93 | 1015.5 |
| 20260905090006 | 68 | 1 | 0.0 | 0.0 | 0.00 | 0.01 | 0.00 | 93 | 1015.7 |
| 20260905084505 | 68 | 1 | 0.0 | 0.0 | 0.00 | 0.01 | 0.00 | 93 | 1015.7 |
| 20260905083003 | 68 | 1 | 0.0 | 0.0 | 0.00 | 0.01 | 0.00 | 93 | 1016.0 |
| 20260905081502 | 69 | 1 | 0.0 | 0.0 | 0.00 | 0.01 | 0.00 | 92 | 1016.1 |
| 20260905080100 | 69 | 1 | 0.0 | 0.0 | 0.00 | 0.01 | 0.00 | 92 | 1016.2 |
| 20260905074606 | 69 | 1 | 0.0 | 0.0 | 0.00 | 0.01 | 0.00 | 93 | 1016.3 |
| 20260905073105 | 69 | 1 | 0.0 | 0.0 | 0.00 | 0.01 | 0.00 | 92 | 1016.2 |
| 20260905071559 | 69 | 1 | 0.0 | 0.0 | 0.00 | 0.01 | 0.00 | 93 | 1016.3 |
| 20260905070059 | 69 | 1 | 0.0 | 0.0 | 0.00 | 0.01 | 0.00 | 93 | 1016.4 |
| 20260905064554 | 69 | 1 | 0.0 | 0.0 | 0.00 | 0.01 | 0.00 | 92 | 1016.5 |
| 20260905063054 | 69 | 1 | 0.0 | 0.0 | 0.00 | 0.01 | 0.00 | 92 | 1016.6 |
| 20260905061553 | 69 | 1 | 0.0 | 0.0 | 0.00 | 0.01 | 0.00 | 92 | 1016.5 |
| 20260905060054 | 69 | 1 | 0.0 | 0.0 | 0.00 | 0.01 | 0.00 | 92 | 1016.8 |
| 20260905054551 | 70 | 1 | 0.0 | 0.0 | 0.00 | 0.01 | 0.00 | 91 | 1016.9 |
| 20260905053049 | 70 | 1 | 0.0 | 3.0 | 0.00 | 0.01 | 0.00 | 91 | 1016.8 |
| 20260905051549 | 70 | 1 | 0.0 | 0.0 | 0.00 | 0.01 | 0.00 | 91 | 1017.0 |
| 20260905050048 | 70 | 1 | 0.0 | 2.0 | 0.00 | 0.01 | 0.00 | 91 | 1016.6 |
| 20260905044546 | 70 | 1 | 0.0 | 0.0 | 0.00 | 0.01 | 0.00 | 91 | 1017.0 |
| 20260905043044 | 71 | 1 | 0.0 | 2.0 | 0.00 | 0.01 | 0.00 | 90 | 1016.9 |
| 20260905041542 | 71 | 1 | 2.0 | 3.0 | 0.00 | 0.01 | 0.00 | 89 | 1016.6 |
| 20260905040039 | 71 | 1 | 0.0 | 0.0 | 0.00 | 0.01 | 0.00 | 89 | 1016.7 |
| 20260905034538 | 72 | 1 | 0.0 | 0.0 | 0.00 | 0.01 | 0.01 | 89 | 1016.7 |
| 20260905033038 | 72 | 1 | 0.0 | 0.0 | 0.00 | 0.01 | 0.01 | 89 | 1016.9 |
| 20260905031547 | 72 | 1 | 0.0 | 0.0 | 0.00 | 0.01 | 0.01 | 88 | 1017.3 |
| 20260905030037 | 72 | 1 | 0.0 | 0.0 | 0.00 | 0.01 | 0.01 | 88 | 1017.4 |
| 20260905024540 | 73 | 1 | 0.0 | 0.0 | 0.00 | 0.01 | 0.01 | 88 | 1017.5 |
| 20260905023035 | 73 | 1 | 0.0 | 0.0 | 0.00 | 0.01 | 0.01 | 88 | 1017.5 |
| 20260905021536 | 73 | 1 | 0.0 | 0.0 | 0.00 | 0.01 | 0.01 | 88 | 1017.7 |
| 20260905020035 | 73 | 1 | 0.0 | 0.0 | 0.00 | 0.01 | 0.01 | 87 | 1017.7 |
| 20260905014534 | 73 | 1 | 0.0 | 0.0 | 0.00 | 0.01 | 0.01 | 87 | 1017.9 |
| 20260905013036 | 74 | 1 | 0.0 | 0.0 | 0.00 | 0.01 | 0.01 | 87 | 1017.8 |
| 20260905011540 | 74 | 1 | 0.0 | 0.0 | 0.00 | 0.01 | 0.01 | 86 | 1017.7 |
| 20260905010034 | 74 | 1 | 0.0 | 0.0 | 0.00 | 0.01 | 0.01 | 86 | 1017.8 |
| 20260905004534 | 75 | 1 | 0.0 | 0.0 | 0.00 | 0.01 | 0.01 | 86 | 1017.6 |
| 20260905003033 | 75 | 1 | 0.0 | 0.0 | 0.00 | 0.01 | 0.01 | 86 | 1017.4 |
| 20260905001531 | 75 | 1 | 0.0 | 0.0 | 0.00 | 0.01 | 0.01 | 85 | 1017.3 |
| 20260905000036 | 76 | 1 | 0.0 | 0.0 | 0.00 | 0.01 | 0.01 | 85 | 1017.0 |
| 20260904234533 | 76 | 1 | 0.0 | 0.0 | 0.00 | 0.01 | 0.01 | 85 | 1017.0 |
| 20260904233028 | 77 | 1 | 0.0 | 0.0 | 0.00 | 0.01 | 0.01 | 84 | 1016.9 |
| 20260904231527 | 77 | 1 | 0.0 | 0.0 | 0.00 | 0.01 | 0.01 | 83 | 1016.8 |
| 20260904230047 | 78 | 1 | 0.0 | 0.0 | 0.00 | 0.01 | 0.01 | 83 | 1016.7 |
| 20260904224523 | 78 | 1 | 0.0 | 0.0 | 0.00 | 0.01 | 0.01 | 83 | 1016.4 |
| 20260904223023 | 78 | 1 | 0.0 | 0.0 | 0.00 | 0.01 | 0.01 | 84 | 1016.4 |
| 20260904221521 | 78 | 1 | 0.0 | 0.0 | 0.00 | 0.01 | 0.01 | 85 | 1016.4 |
| 20260904220019 | 78 | 1 | 0.0 | 0.0 | 0.00 | 0.01 | 0.01 | 85 | 1016.6 |
| 20260904214519 | 77 | 1 | 0.0 | 0.0 | 0.00 | 0.01 | 0.01 | 85 | 1016.7 |
| 20260904213020 | 76 | 1 | 0.0 | 0.0 | 0.00 | 0.01 | 0.01 | 86 | 1016.7 |
| 20260904211519 | 76 | 1 | 0.0 | 0.0 | 0.01 | 0.01 | 0.01 | 87 | 1016.7 |
| 20260904210025 | 76 | 1 | 0.0 | 0.0 | 0.01 | 0.01 | 0.01 | 84 | 1016.6 |
| 20260904204516 | 76 | 1 | 0.0 | 0.0 | 0.01 | 0.01 | 0.01 | 83 | 1016.7 |
| 20260904203017 | 76 | 1 | 0.0 | 0.0 | 0.01 | 0.01 | 0.01 | 80 | 1017.0 |
| 20260904201512 | 78 | 1 | 0.0 | 0.0 | 0.00 | 0.00 | 0.00 | 76 | 1017.4 |
| 20260904200033 | 80 | 1 | 0.0 | 0.0 | 0.00 | 0.00 | 0.00 | 73 | 1017.4 |
| 20260904194510 | 83 | 1 | 0.0 | 0.0 | 0.00 | 0.03 | 0.00 | 76 | 1017.5 |
| 20260904193010 | 85 | 1 | 0.0 | 6.0 | 0.00 | 0.03 | 0.00 | 73 | 1017.3 |
| 20260904191516 | 85 | 1 | 0.0 | 5.0 | 0.00 | 0.03 | 0.00 | 74 | 1017.3 |
| 20260904190010 | 85 | 1 | 0.0 | 0.0 | 0.00 | 0.03 | 0.00 | 68 | 1017.5 |
| 20260904184509 | 85 | 1 | 0.0 | 0.0 | 0.00 | 0.03 | 0.00 | 68 | 1017.5 |
| 20260904183009 | 85 | 1 | 0.0 | 0.0 | 0.00 | 0.03 | 0.00 | 65 | 1017.4 |
| 20260904181504 | 86 | 1 | 0.0 | 0.0 | 0.00 | 0.03 | 0.00 | 66 | 1017.7 |
| 20260904180001 | 86 | 1 | 0.0 | 0.0 | 0.00 | 0.03 | 0.00 | 65 | 1017.8 |
| 20260904174619 | 85 | 1 | 0.0 | 0.0 | 0.00 | 0.03 | 0.00 | 70 | 1018.1 |
| 20260904173056 | 85 | 1 | 0.0 | 0.0 | 0.00 | 0.03 | 0.00 | 68 | 1018.3 |
| 20260904171602 | 84 | 1 | 0.0 | 0.0 | 0.00 | 0.03 | 0.00 | 71 | 1018.5 |
| 20260904170052 | 84 | 1 | 0.0 | 0.0 | 0.00 | 0.03 | 0.00 | 73 | 1018.7 |